Regional Weather Roundup
Issued by NWS

Home | Current Version | Previous Version | Graphics & Text | Print | Product List | Glossary On
Versions: 1 2 3 4 5 6 7 8 9 10 11 12 13 14 15 16 17 18 19 20 21 22 23 24 25 26 27 28 29 30 31 32 33 34 35 36 37 38 39 40 41 42 43 44 45 46 47 48 49 50
000
ASUS45 KBOU 021110
RWRCO

WEATHER ROUNDUP FOR COLORADO
NATIONAL WEATHER SERVICE DENVER/BOULDER CO
500 AM MDT SUN AUG 02 2015

NOTE: "FAIR" INDICATES FEW OR NO CLOUDS BELOW 12000 FEET WITH NO
SIGNIFICANT WEATHER AND/OR OBSTRUCTIONS TO VISIBILITY.

COZ001>005-013-030-031-021200-
...NORTHWEST COLORADO...

CITY           SKY/WX    TMP DP  RH WIND       PRES   REMARKS
CRAIG          CLEAR     50  42  74 CALM      30.19S
HAYDEN         CLEAR     55  37  50 E12       30.22R
MEEKER         PTCLDY    51  43  74 NE6       30.21S
MOUNT WERNER   NOT AVBL
STEAMBOAT SPGS CLEAR     49  40  71 CALM      30.24S
WALDEN         MOCLDY    43  36  75 CALM      30.31S
$$

COZ006>008-011-021200-
...WEST CENTRAL VALLEYS...

CITY           SKY/WX    TMP DP  RH WIND       PRES   REMARKS
GRAND JUNCTION CLOUDY    70  52  52 E13       30.09S
MONTROSE       CLOUDY    65  54  67 S10       30.18F
EAGLE          MOCLDY    61  45  55 CALM      30.25R
RIFLE          MOCLDY    65  50  58 CALM      30.15S
DELTA          CLOUDY    69  52  54 NE3       30.13F
NUCLA          CLOUDY    61  57  88 CALM      30.23S
$$

COZ017>023-064>068-021200-
...SOUTHWEST COLORADO...

CITY           SKY/WX    TMP DP  RH WIND       PRES   REMARKS
DURANGO        MOCLDY    57  53  86 CALM      30.23F
CORTEZ         CLOUDY    63  58  83 CALM      30.19R
PAGOSA SPRINGS MOCLDY    54  54  99 CALM      30.32F
TELLURIDE      CLOUDY    53  51  95 SE5       30.41S
WOLF CREEK PAS NOT AVBL
$$

COZ009-010-012-014-032>034-037-058>063-021200-
...CENTRAL COLORADO...

CITY           SKY/WX    TMP DP  RH WIND       PRES   REMARKS
ASPEN          CLOUDY    59  47  64 S3        30.29S
BUENA VISTA    CLOUDY    54  47  80 W5        30.33S
COPPER MTN     CLOUDY    54  36  50 W7        30.62S
BERTHOUD PASS  FAIR      45  34  65 N14       30.66S
COTTONWOOD PAS CLOUDY    57  39  51 N3        30.45S
GUNNISON       CLOUDY    54  52  94 CALM      30.35F
KREMMLING      CLEAR     46  37  71 CALM      30.31R
LEADVILLE      MOCLDY    50  43  77 NE5       30.45S
MONARCH PASS   CLOUDY    46  37  71 SW7       30.70R
SALIDA         CLOUDY    60  47  64 W7        30.37S
SUNLIGHT       CLOUDY    55  43  62 CALM      30.54S
WILKERSON PASS MOCLDY    50  37  62 W7        30.57F
$$

COZ069>075-021200-
...SAN LUIS VALLEY/SANGRE DE CRISTO MOUNTAINS...

CITY           SKY/WX    TMP DP  RH WIND       PRES   REMARKS
ALAMOSA        MOCLDY    51  48  89 CALM      30.29F
LA VETA PASS   PTCLDY    45  41  87 MISG      30.43F
SAGUACHE       CLOUDY    55  48  76 NW6       30.32F
$$

COZ035-036-038>040-021200-
...NORTHERN COLORADO FRONT RANGE...

CITY           SKY/WX    TMP DP  RH WIND       PRES   REMARKS
DENVER INTL AP MOCLDY    67  53  61 W8        30.08S
DMNS CITY PARK   N/A     65  54  65 SW2       30.08S
AURORA         MOCLDY    64  48  56 S5        30.11S
FRONT RANGE AP PTCLDY    64  46  52 W8        30.10S
ERIE MUNI ARPT PTCLDY    62  55  78 SW3       30.07F
BOULDER MUN AP PTCLDY    64  52  63 S3        30.07F
CENTENNIAL     MOCLDY    65  50  58 SW8       30.12F
BROOMFIELD     PTCLDY    68  52  56 NW7       30.11S
FORT COLLINS   PTCLDY    61  54  77 N3        30.07S
LONGMONT       PTCLDY    61  52  72 NW3       30.08F
$$

COZ041-046-047-076>085-087-088-021200-
...PIKES PEAK/PALMER DIVIDE AND SOUTHERN FOOTHILLS...

CITY           SKY/WX    TMP DP  RH WIND       PRES   REMARKS
COLO. SPRINGS  MOCLDY    64  49  57 N8        30.15F
A. F. ACADEMY  MOCLDY    56  47  72 N9        30.17F
ELLICOTT       MOCLDY   N/A N/A N/A CALM      30.14F
FALCON         MOCLDY    61  47  62 NW7       30.20F
FORT CARSON    CLOUDY    63  51  66 N9        30.11S
LIMON          PTCLDY    56  50  80 N6        30.09S
MONUMENT HILL  NOT AVBL
TRINIDAD       CLOUDY    65  51  60 SW16      30.11S
$$

COZ042>045-048>051-090-091-021200-
...NORTHEAST COLORADO...

CITY           SKY/WX    TMP DP  RH WIND       PRES   REMARKS
GREELEY ARPT   PTCLDY    61  54  77 N5        30.05R
AKRON          PTCLDY    63  58  83 E5        30.04F
BURLINGTON     CLEAR     64  61  90 S6        30.02S
WRAY           CLEAR     64  63  95 CALM      29.99S
STERLING       PTCLDY    59  55  88 N5        29.99S
HOLYOKE        NOT AVBL
FORT MORGAN    PTCLDY    61  53  76 NE6       30.03S
$$

COZ086-089-092>099-021200-
...SOUTHEAST COLORADO...

CITY           SKY/WX    TMP DP  RH WIND       PRES   REMARKS
PUEBLO         CLOUDY    68  60  75 CALM      30.04S
LA JUNTA       CLOUDY    70  56  61 S7        30.02R
LAMAR          MOCLDY    66  60  81 SE7       29.98R
SPRINGFIELD      N/A     68  68 100 SW5       30.04S
$$


USA.gov is the U.S. government's official web portal to all federal, state and local government web resources and services.